Regional Weather Roundup
Issued by NWS Little Rock, AR

Home | Current Version | Previous Version | Graphics & Text | Print | Product List | Glossary On
Versions: 1 2 3 4 5 6 7 8 9 10 11 12 13 14 15 16 17 18 19 20 21 22 23 24 25 26 27 28 29 30 31 32 33 34 35 36 37 38 39 40 41 42 43 44 45 46 47 48 49
000
ASUS44 KLZK 231905
RWRLZK

WEATHER ROUNDUP FOR ARKANSAS
NATIONAL WEATHER SERVICE LITTLE ROCK AR
200 PM CDT WED JUL 23 2014

NOTE: "FAIR" INDICATES FEW OR NO CLOUDS BELOW 12,000 FEET WITH NO
SIGNIFICANT WEATHER AND/OR OBSTRUCTIONS TO VISIBILITY.

ARZ001-003-010-029-232000-
NORTHWEST ARKANSAS

CITY           SKY/WX    TMP DP  RH WIND       PRES   REMARKS
FAYETTEVILLE   PTSUNNY   90  75  62 NW18      30.06F HX 100
FORT SMITH     PTSUNNY   94  77  57 W9G17     30.01F HX 108
HARRISON       MOSUNNY   95  77  55 NW8       30.02F HX 109
BENTONVILLE      N/A    N/A N/A N/A NW22G31   30.15R
ROGERS         PTSUNNY   87  70  56 NW31G51   30.13R SQUALL  HAZE
SILOAM SPGS    PTSUNNY   72  61  68 NW52G61   30.16R THUNDER
HIGHFILL       PTSUNNY   74  65  73 NW38G59   30.12R
SPRINGDALE     CLOUDY    91  77  62 NW14G25   30.10S HX 105
$$

ARZ004-005-016-232000-
NORTH CENTRAL ARKANSAS

CITY           SKY/WX    TMP DP  RH WIND       PRES   REMARKS
BATESVILLE     MOSUNNY   90  77  66 CALM      29.98F HX 102
FLIPPIN        SUNNY     97  75  49 NW5       29.98F HX 109
MTN HOME       TSTM      87  78  74 CALM      29.99F HX 100
$$

ARZ040-041-232000-
WEST CENTRAL ARKANSAS

CITY           SKY/WX    TMP DP  RH WIND       PRES   REMARKS
MENA           MOSUNNY   91  79  66 NW6       30.06F HX 107
MOUNT IDA      MOSUNNY   90  77  65 CALM      30.02F HX 103
$$

ARZ009-017-025-026-028-232000-
NORTHEAST ARKANSAS

CITY           SKY/WX    TMP DP  RH WIND       PRES   REMARKS
CORNING        LGT RAIN  90  73  58 SE13G20   30.01F HX  98
JONESBORO      PTSUNNY   87  71  58 SW10      30.00F HX  93
NEWPORT        MOSUNNY   91  75  59 S12       30.00F HX 101
WALNUT RIDGE   SUNNY     91  63  38 S14       29.97F HX  92
BLYTHEVILLE    PTSUNNY   85  72  65 E10G20    30.07R THUNDER HX  91
NW BLYTHEVILLE LGT RAIN  86  75  70 NE9       30.05R HX  95
$$

ARZ022-023-033-042-044-232000-
CENTRAL ARKANSAS

CITY           SKY/WX    TMP DP  RH WIND       PRES   REMARKS
LITTLE ROCK    MOSUNNY   90  74  59 W6        30.00F HX  99
N LITTLE ROCK  MOSUNNY   88  77  69 S9        30.00F HX 101
JACKSONVILLE   MOSUNNY   91  76  61 S6        29.99F HX 102
SEARCY         SUNNY     90  77  65 VRB7      29.99F HX 103
HOT SPRINGS    SUNNY     88  75  65 MISG      30.03F HX  97
RUSSELLVILLE   MOSUNNY   92  79  65 SW5       29.98F HX 108
CLINTON        PTSUNNY   90  81  74 SE5       29.98F HX 108
$$

ARZ036-232000-
EAST ARKANSAS

CITY           SKY/WX    TMP DP  RH WIND       PRES   REMARKS
WEST MEMPHIS   SUNNY     88  76  67 SW8       30.01F HX  99
$$

ARZ050-053-066-070-073-232000-
SOUTHWEST ARKANSAS

CITY           SKY/WX    TMP DP  RH WIND       PRES   REMARKS
ARKADELPHIA    FAIR      91  77  63 SW7       30.04F HX 104
CAMDEN         SUNNY     91  70  49 NW3       30.04F HX  97
TEXARKANA      SUNNY     89  72  56 S7        30.03F HX  96
EL DORADO      SUNNY     88  70  55 CALM      30.04F HX  93
DE QUEEN       MOSUNNY   88  76  67 W13       30.02F HX  99
$$

ARZ056-057-069-232000-
SOUTHEAST ARKANSAS

CITY           SKY/WX    TMP DP  RH WIND       PRES   REMARKS
PINE BLUFF     SUNNY     89  72  56 SW7       30.02F HX  96
STUTTGART      SUNNY     90  73  58 SW7       30.02F HX  98
MONTICELLO     SUNNY     89  69  51 CALM      30.03F HX  93

$$




USA.gov is the U.S. government's official web portal to all federal, state and local government web resources and services.